EW0295 Weather Reports


time (UTC)temp
F
wind
direction
speed
knots
gust
knots
rain 1hr
in
rain 24hr
in
rain mn
in
humidity
%
barometer
mb
20260507170003 57 164 2.6 7.0 0.00 0.00 0.00 55 1017.5
20260507165403 57 172 2.6 7.0 0.00 0.00 0.00 54 1017.5
20260507164503 57 162 1.7 5.2 0.00 0.00 0.00 54 1017.5
20260507163603 57 151 2.6 5.2 0.00 0.00 0.00 54 1017.4
20260507162917 57 146 2.6 5.2 0.00 0.00 0.00 54 1017.4
20260507161803 57 139 1.7 6.1 0.00 0.00 0.00 55 1017.4
20260507160903 57 140 0.9 3.5 0.00 0.00 0.00 56 1017.5
20260507160003 57 141 1.7 4.3 0.00 0.00 0.00 56 1017.5
20260507155403 57 147 1.7 5.2 0.00 0.00 0.00 54 1017.4
20260507154503 57 137 0.9 5.2 0.00 0.00 0.00 53 1017.4
20260507153603 58 159 0.9 3.5 0.00 0.00 0.00 54 1017.4
20260507152917 58 0 0.0 3.5 0.00 0.00 0.00 54 1017.4
20260507151803 58 175 1.7 4.3 0.00 0.00 0.00 55 1017.3
20260507150903 58 179 2.6 5.2 0.00 0.00 0.00 54 1017.2
20260507150003 58 187 2.6 6.1 0.00 0.00 0.00 53 1017.2
20260507145403 59 210 1.7 5.2 0.00 0.00 0.00 52 1017.2
20260507144503 60 199 1.7 4.3 0.00 0.00 0.00 52 1017.2
20260507143603 60 0 0.0 3.5 0.00 0.00 0.00 53 1017.2
20260507142703 58 191 0.9 3.5 0.00 0.00 0.00 53 1017.2
20260507142016 59 0 0.0 3.5 0.00 0.00 0.00 53 1017.2
20260507140903 58 0 0.0 1.7 0.00 0.00 0.00 59 1017.2
20260507140003 57 0 0.0 2.6 0.00 0.00 0.00 61 1017.2
20260507135403 57 0 0.0 2.6 0.00 0.00 0.00 61 1017.3
20260507134503 57 80 0.9 3.5 0.00 0.00 0.00 61 1017.3
20260507133603 57 105 1.7 5.2 0.00 0.00 0.00 62 1017.3
20260507132703 58 0 0.0 2.6 0.00 0.00 0.00 57 1017.2
20260507131803 58 0 0.0 2.6 0.00 0.00 0.00 54 1017.1
20260507130903 58 145 0.9 2.6 0.00 0.00 0.00 55 1017.2
20260507130003 58 0 0.0 2.6 0.00 0.00 0.00 54 1017.1
20260507125403 58 0 0.0 0.9 0.00 0.00 0.00 53 1017.1
20260507124503 57 244 0.9 3.5 0.00 0.00 0.00 54 1017.2
20260507123603 57 291 1.7 4.3 0.00 0.00 0.00 55 1017.1
20260507122705 58 0 0.0 1.7 0.00 0.00 0.00 56 1017.0
20260507122019 57 145 0.9 4.3 0.00 0.00 0.00 55 1017.0
20260507120903 58 267 1.7 7.0 0.00 0.00 0.00 55 1017.0
20260507120003 58 280 1.7 7.8 0.00 0.00 0.00 55 1017.0
20260507115403 58 261 0.9 3.5 0.00 0.00 0.00 57 1016.9
20260507114717 57 0 0.0 4.3 0.00 0.00 0.00 56 1016.9
20260507113603 57 289 0.9 3.5 0.00 0.00 0.00 54 1016.9
20260507112703 57 271 1.7 5.2 0.00 0.00 0.00 54 1017.0
20260507111803 57 274 0.9 5.2 0.00 0.00 0.00 53 1017.0
20260507110903 58 206 0.9 4.3 0.00 0.00 0.00 53 1017.0
20260507110003 57 194 0.9 3.5 0.00 0.00 0.00 52 1016.9
20260507105403 57 195 1.7 6.1 0.00 0.00 0.00 52 1017.0
20260507104504 58 198 0.9 4.3 0.00 0.00 0.00 53 1016.9
20260507103603 58 179 2.6 6.1 0.00 0.00 0.00 52 1017.0
20260507102703 58 183 1.7 7.0 0.00 0.00 0.00 52 1016.9
20260507101803 58 149 0.9 4.3 0.00 0.00 0.00 55 1016.8
20260507100903 57 205 1.7 6.1 0.00 0.00 0.00 53 1016.9
20260507100003 57 164 2.6 7.0 0.00 0.00 0.00 56 1016.8
20260507095403 57 181 2.6 7.0 0.00 0.00 0.00 57 1016.7
20260507094503 57 162 1.7 5.2 0.00 0.00 0.00 62 1016.7
20260507093603 57 190 1.7 7.0 0.00 0.00 0.00 61 1016.7
20260507092703 56 201 1.7 5.2 0.00 0.00 0.00 63 1016.6
20260507091803 56 201 0.9 4.3 0.00 0.00 0.00 62 1016.6
20260507091117 56 184 1.7 5.2 0.00 0.00 0.00 65 1016.6
20260507090004 55 207 0.9 5.2 0.00 0.00 0.00 67 1016.5
20260507085403 55 212 0.9 4.3 0.00 0.00 0.00 68 1016.6
20260507084503 55 185 0.9 5.2 0.00 0.00 0.00 68 1016.5
20260507083603 55 164 0.9 5.2 0.00 0.00 0.00 69 1016.5
20260507082703 53 218 0.9 2.6 0.00 0.00 0.00 70 1016.5
20260507081803 54 212 0.9 3.5 0.00 0.00 0.00 70 1016.5
20260507081117 53 245 0.9 2.6 0.00 0.00 0.00 70 1016.4
20260507080003 53 191 0.9 4.3 0.00 0.00 0.00 71 1016.3
20260507075403 53 149 1.7 4.3 0.00 0.00 0.00 71 1016.2
20260507074503 52 173 0.9 3.5 0.00 0.00 0.00 73 1016.2
20260507073603 52 201 0.9 3.5 0.00 0.00 0.00 74 1016.1
20260507072703 52 0 0.0 1.7 0.00 0.00 0.00 75 1016.1
20260507071803 50 259 0.9 3.5 0.00 0.00 0.00 75 1016.2
20260507070903 50 250 0.9 2.6 0.00 0.00 0.00 78 1016.1
20260507070216 50 0 0.0 4.3 0.00 0.00 0.00 78 1016.1
20260507065616 51 173 0.9 4.3 0.00 0.00 0.00 78 1016.0
20260507064503 49 0 0.0 2.6 0.00 0.00 0.00 80 1016.0
20260507063603 48 0 0.0 2.6 0.00 0.00 0.00 81 1016.0
20260507062703 48 0 0.0 1.7 0.00 0.00 0.00 82 1015.9
20260507061803 47 237 0.9 3.5 0.00 0.00 0.00 82 1015.8
20260507060903 47 246 0.9 4.3 0.00 0.00 0.00 82 1015.7
20260507060003 47 0 0.0 0.0 0.00 0.00 0.00 82 1015.6
20260507055403 46 0 0.0 0.0 0.00 0.00 0.00 84 1015.6
20260507054503 44 0 0.0 0.0 0.00 0.00 0.00 83 1015.5
20260507053603 44 0 0.0 0.0 0.00 0.00 0.00 83 1015.3
20260507052917 44 0 0.0 0.0 0.00 0.00 0.00 82 1015.3
20260507051803 43 0 0.0 0.0 0.00 0.00 0.00 81 1015.3
20260507050903 43 0 0.0 0.0 0.00 0.00 0.00 81 1015.1
20260507050219 43 0 0.0 0.0 0.00 0.00 0.00 80 1015.1
20260507045403 42 0 0.0 0.0 0.00 0.00 0.00 80 1015.1
20260507044503 43 0 0.0 0.0 0.00 0.00 0.00 80 1015.1
20260507043603 44 0 0.0 0.0 0.00 0.00 0.00 80 1015.0
20260507042703 44 0 0.0 0.0 0.00 0.00 0.00 82 1014.9
20260507041803 43 0 0.0 0.0 0.00 0.00 0.00 82 1014.8
20260507040903 42 0 0.0 0.0 0.00 0.00 0.00 82 1014.7
20260507040003 41 0 0.0 0.0 0.00 0.00 0.00 81 1014.6
20260507035618 40 0 0.0 0.0 0.00 0.00 0.00 81 1014.6
20260507034718 40 0 0.0 0.0 0.00 0.00 0.00 81 1014.6
20260507033603 39 0 0.0 0.0 0.00 0.00 0.00 81 1014.7
20260507032703 39 0 0.0 0.0 0.00 0.00 0.00 80 1014.6
20260507031803 39 0 0.0 0.0 0.00 0.00 0.00 81 1014.6
20260507030903 39 0 0.0 0.0 0.00 0.00 0.00 81 1014.6
20260507030003 39 0 0.0 0.0 0.00 0.00 0.00 80 1014.6
20260507025403 39 0 0.0 0.0 0.00 0.00 0.00 80 1014.5
20260507024503 39 0 0.0 0.0 0.00 0.00 0.00 80 1014.4
20260507023603 38 0 0.0 0.0 0.00 0.00 0.00 80 1014.4
20260507022916 39 0 0.0 0.0 0.00 0.00 0.00 80 1014.3
20260507021803 39 0 0.0 0.0 0.00 0.00 0.00 79 1014.2
20260507021119 39 0 0.0 0.0 0.00 0.00 0.00 79 1014.2
20260507020003 40 0 0.0 0.0 0.00 0.00 0.00 79 1014.3
20260507015403 40 0 0.0 0.0 0.00 0.00 0.00 79 1014.2
20260507014717 40 0 0.0 0.0 0.00 0.00 0.00 78 1014.2
20260507013603 40 0 0.0 0.9 0.00 0.00 0.00 78 1014.0
20260507012703 41 0 0.0 0.9 0.00 0.00 0.00 78 1014.0
20260507011803 41 0 0.0 0.0 0.00 0.00 0.00 78 1014.0
20260507010003 42 0 0.0 0.0 0.00 0.00 0.00 77 1014.0
20260507005403 42 0 0.0 0.0 0.00 0.00 0.00 76 1014.0
20260507004503 42 0 0.0 0.0 0.00 0.00 0.00 76 1014.0
20260507003603 43 0 0.0 0.9 0.00 0.00 0.00 76 1014.0
20260507002915 43 0 0.0 0.9 0.00 0.00 0.00 76 1014.0
20260507001803 43 0 0.0 0.9 0.00 0.00 0.00 76 1013.9
20260507000903 43 0 0.0 0.9 0.00 0.00 0.00 75 1013.9
20260507000003 44 0 0.0 1.7 0.00 0.00 0.00 74 1013.8
20260506235617 44 0 0.0 1.7 0.00 0.00 0.00 73 1013.8
20260506234503 44 0 0.0 0.0 0.00 0.00 0.00 75 1013.7
20260506233816 44 0 0.0 0.0 0.00 0.00 0.00 74 1013.7
20260506232703 45 0 0.0 0.9 0.00 0.00 0.00 74 1013.7
20260506231804 44 0 0.0 0.9 0.00 0.00 0.00 73 1013.6
20260506230903 44 0 0.0 0.9 0.00 0.00 0.00 74 1013.6
20260506230217 44 0 0.0 0.9 0.00 0.00 0.00 74 1013.6
20260506225403 44 0 0.0 0.9 0.00 0.00 0.00 73 1013.5
20260506224503 44 0 0.0 0.9 0.00 0.00 0.00 73 1013.5
20260506223603 44 0 0.0 0.9 0.00 0.00 0.00 74 1013.5
20260506222703 44 0 0.0 1.7 0.00 0.00 0.00 73 1013.4
20260506221803 44 0 0.0 0.9 0.00 0.00 0.00 73 1013.4
20260506220903 45 0 0.0 0.9 0.00 0.00 0.00 73 1013.4
20260506220003 45 0 0.0 1.7 0.00 0.00 0.00 72 1013.4
20260506215403 45 0 0.0 3.5 0.00 0.00 0.00 71 1013.4
20260506214503 45 18 0.9 3.5 0.00 0.00 0.00 71 1013.4
20260506213603 46 25 0.9 4.3 0.00 0.00 0.00 71 1013.3
20260506212918 46 28 1.7 5.2 0.00 0.00 0.00 71 1013.3
20260506212018 46 16 1.7 4.3 0.00 0.00 0.00 70 1013.3
20260506210903 46 2 1.7 6.1 0.00 0.00 0.00 70 1013.2
20260506210003 47 352 2.6 6.1 0.00 0.00 0.00 69 1013.2
20260506205403 48 344 2.6 7.0 0.00 0.00 0.00 69 1013.1
20260506204503 48 340 2.6 5.2 0.00 0.00 0.00 70 1013.1
20260506203603 49 340 0.9 3.5 0.00 0.00 0.00 70 1013.0
20260506202703 49 351 1.7 5.2 0.00 0.00 0.00 71 1013.0
20260506201803 50 0 0.0 0.9 0.00 0.00 0.00 75 1012.9
20260506200903 50 0 0.0 0.0 0.00 0.00 0.00 74 1012.8
20260506200003 50 0 0.0 0.0 0.00 0.00 0.00 73 1012.8
20260506195403 50 0 0.0 0.0 0.00 0.00 0.00 73 1012.8
20260506194503 50 0 0.0 0.0 0.00 0.00 0.00 73 1012.6
20260506193603 51 0 0.0 1.7 0.00 0.00 0.00 73 1012.5
20260506192703 51 0 0.0 1.7 0.00 0.00 0.00 73 1012.6
20260506192017 51 0 0.0 0.9 0.00 0.00 0.00 73 1012.5
20260506190903 51 0 0.0 1.7 0.00 0.00 0.00 72 1012.2
20260506190215 51 0 0.0 1.7 0.00 0.00 0.00 72 1012.1
20260506185619 51 103 0.9 2.6 0.00 0.00 0.00 72 1012.0
20260506184503 51 0 0.0 2.6 0.00 0.00 0.00 70 1012.0
20260506183603 52 105 0.9 4.3 0.00 0.00 0.00 69 1011.9
20260506182703 52 0 0.0 2.6 0.00 0.00 0.00 68 1011.8
20260506181803 52 90 0.9 2.6 0.00 0.00 0.00 68 1011.7
20260506180903 53 103 0.9 3.5 0.00 0.00 0.00 64 1011.5
20260506180004 53 125 0.9 3.5 0.00 0.00 0.00 57 1011.5
20260506175403 54 123 0.9 3.5 0.00 0.00 0.00 54 1011.4
20260506174503 54 121 0.9 3.5 0.00 0.00 0.00 52 1011.4
20260506173603 54 129 0.9 3.5 0.00 0.00 0.00 53 1011.3
20260506172703 54 113 0.9 4.3 0.00 0.00 0.00 55 1011.3
20260506171803 54 0 0.0 1.7 0.00 0.00 0.00 55 1011.2
20260506170903 55 98 0.9 2.6 0.00 0.00 0.00 55 1011.2